Theta_e
307 306 304 310 309 308 309 311 310 308 308 311 312 312 309 305 305 305 305 305 305 305 303 303 303 303 302 303 303 303 303 305 306 308 313 318 325 328 328 328 328 327 326 325
307 309 307 307 309 310 311 308 307 307 307 312 311 310 308 306 305 306 306 305 305 304 304 303 301 301 301 302 302 302 303 304 306 308 312 319 324 327 327 327 326 326 326 325
305 308 306 307 307 310 307 306 302 309 308 311 307 305 306 305 303 304 303 303 302 302 302 302 301 300 300 301 301 302 303 304 307 309 312 316 324 325 325 325 326 326 326 325
307 306 306 305 306 306 306 306 307 310 309 310 305 307 297 302 303 304 303 301 300 300 300 300 299 299 299 299 301 302 303 303 307 310 312 316 324 325 325 326 326 325 325 325
306 306 306 307 306 306 305 306 309 308 309 312 304 308 302 301 304 304 303 301 299 298 298 299 299 299 299 299 300 302 302 303 306 311 315 317 323 324 324 325 323 324 324 324
306 305 305 306 306 305 305 308 304 306 310 306 299 303 303 301 303 303 303 299 297 297 297 297 298 298 298 300 301 301 301 301 304 308 313 318 322 317 317 316 314 314 315 319
306 308 306 305 305 305 307 304 302 302 301 307 304 305 305 301 302 303 303 298 296 295 296 296 297 297 296 297 298 299 300 301 301 305 308 309 310 311 311 312 312 312 311 312
307 306 306 306 305 304 308 304 303 302 303 304 305 308 308 301 302 303 299 297 296 295 294 295 295 295 295 296 298 299 300 300 301 302 303 305 307 308 309 309 309 309 310 311
306 307 305 305 305 305 307 307 304 306 300 306 304 304 303 303 301 299 297 296 296 295 294 293 293 294 294 295 296 298 299 300 302 301 303 304 305 305 306 306 307 308 307 308
305 307 305 305 306 305 306 304 307 303 300 302 301 306 305 306 304 299 296 295 295 296 294 293 293 293 294 295 297 298 299 298 299 301 301 303 304 306 306 307 307 308 307 308
305 303 304 305 306 306 308 308 306 304 306 305 306 303 301 303 303 302 298 294 294 295 294 293 292 293 293 295 296 297 298 298 298 298 297 300 301 302 303 304 305 305 306 307
304 302 304 306 303 302 304 305 305 304 303 305 307 305 302 301 301 300 298 294 294 294 293 292 292 293 293 293 295 295 297 298 297 297 297 298 298 299 299 298 298 299 299 299
304 299 297 300 301 302 306 305 305 304 304 306 306 303 299 300 300 298 295 293 294 293 293 292 292 292 292 292 294 295 296 297 298 298 297 297 297 297 297 297 297 297 297 297
302 300 302 305 305 302 305 305 305 306 306 304 306 303 303 301 300 297 293 293 293 293 292 292 291 291 292 292 293 294 295 296 297 297 297 296 296 296 296 296 297 297 297 297
302 300 300 302 301 304 305 305 305 307 305 304 303 304 303 301 299 298 294 292 292 293 292 291 291 291 292 293 293 293 294 295 296 297 297 296 296 296 296 296 296 296 296 296
300 300 297 296 297 299 301 303 303 305 306 305 305 305 300 299 298 295 294 293 293 293 292 291 291 291 292 293 293 293 293 293 294 295 295 295 295 295 295 294 294 294 294 294
301 297 295 297 293 292 300 296 300 302 301 305 306 305 301 299 299 297 296 294 294 294 293 291 291 292 292 293 293 293 293 293 293 293 293 294 294 294 294 293 293 293 292 292
297 294 289 294 290 301 306 295 296 300 300 301 302 300 301 301 299 299 295 295 294 293 292 291 292 293 293 293 293 293 293 293 293 293 293 293 293 293 292 292 291 291 291 290
296 296 288 297 291 299 305 294 295 297 300 298 301 301 298 299 299 297 295 294 295 293 293 293 294 294 293 293 293 293 293 293 293 293 292 292 292 292 291 291 290 290 289 289
295 294 296 282 296 302 305 294 293 295 301 296 297 298 296 297 300 299 295 294 293 293 293 294 294 294 294 293 293 293 292 292 292 292 292 291 291 290 290 290 289 289 289 289
298 292 295 288 292 294 296 293 292 301 308 293 293 294 296 298 298 296 294 293 294 293 293 294 294 294 295 294 293 292 292 292 292 292 291 290 290 289 289 289 289 289 289 289
302 299 292 286 291 301 293 292 297 299 294 294 292 293 295 295 296 296 293 291 290 291 292 293 293 293 294 293 293 292 292 292 292 291 290 289 289 289 289 289 289 289 289 289
303 300 299 298 299 297 294 296 293 292 293 293 294 292 293 294 294 294 293 290 290 291 292 292 292 293 293 293 293 292 293 292 292 290 289 289 289 288 289 289 289 289 289 288
295 294 296 298 301 297 294 294 292 291 293 293 294 293 292 294 293 293 292 290 289 290 291 291 292 291 291 292 293 294 293 292 291 289 289 288 288 289 289 289 289 289 288 287
295 295 294 295 297 296 296 295 294 293 290 292 292 293 293 293 293 293 291 290 290 290 291 291 291 291 292 292 293 293 293 292 290 289 288 288 288 289 289 288 288 288 287 286
293 296 301 301 300 301 302 297 295 293 292 292 291 291 292 292 293 291 291 291 290 290 291 290 291 291 292 293 293 292 292 292 290 288 288 288 288 288 288 288 287 285 285 284
Wind_Speed
3 5 2 4 3 4 5 3 3 3 2 3 3 3 2 3 4 6 8 11 12 13 19 20 21 26 26 24 26 25 25 27 27 24 19 18 23 23 26 30 34 36 36 30
4 3 4 5 4 4 2 2 3 4 3 2 3 6 4 1 3 4 6 6 10 13 14 20 26 27 26 26 28 24 26 27 24 24 20 11 15 22 26 26 26 34 30 32
4 3 5 3 2 3 3 3 3 3 4 1 6 3 2 3 4 5 4 5 6 9 14 15 21 25 29 32 31 28 30 33 26 19 17 16 11 14 18 23 24 32 33 37
3 1 4 2 2 4 1 4 3 2 3 2 4 4 5 3 7 4 5 6 7 10 11 12 21 25 29 32 37 40 41 40 28 12 13 15 12 11 12 16 23 22 32 32
2 5 3 2 2 4 2 4 3 0 1 3 4 1 6 2 5 5 5 6 6 7 9 12 18 24 26 32 35 39 40 36 30 11 5 13 11 8 10 14 15 15 20 23
2 1 2 3 2 1 3 3 3 3 1 1 3 3 5 4 5 3 3 5 6 7 8 13 19 24 26 35 40 41 39 36 32 22 23 13 15 20 24 25 28 28 27 25
1 1 1 2 2 1 2 3 3 4 3 3 3 1 8 5 6 5 4 4 5 6 7 8 13 19 25 29 32 34 40 39 36 31 34 32 29 33 29 26 23 26 31 40
5 3 5 3 2 4 1 3 4 4 2 4 2 5 5 5 3 4 3 2 2 6 5 7 11 16 20 25 27 31 34 38 40 34 36 36 31 34 35 32 33 30 33 42
5 2 1 2 1 1 2 2 2 5 1 2 3 6 5 2 4 4 5 3 3 4 5 6 12 16 19 20 20 23 26 31 35 36 38 41 41 38 34 34 34 39 34 41
5 4 1 2 2 3 2 4 3 3 1 4 4 5 5 6 10 8 7 6 5 2 4 5 10 15 17 17 18 19 20 22 24 29 33 35 36 37 37 38 38 38 36 33
3 2 0 2 5 6 2 2 3 2 3 3 3 5 6 6 9 12 9 8 6 5 3 2 7 10 13 15 16 17 18 20 22 23 25 30 31 32 33 34 31 29 30 28
5 4 3 3 0 0 2 5 5 4 4 2 1 7 1 6 6 8 8 8 6 5 4 1 4 7 11 13 15 15 16 18 19 21 25 27 28 29 29 29 28 28 28 27
7 1 2 6 4 2 4 5 3 4 2 6 4 6 2 2 3 6 8 8 7 6 5 3 2 3 5 8 11 13 15 17 17 20 24 25 26 26 26 26 27 27 27 27
5 2 5 6 3 4 5 5 6 5 3 4 8 4 5 6 7 7 8 8 8 7 7 5 4 3 2 5 9 10 12 14 16 17 20 22 22 22 23 24 25 25 25 26
3 5 2 3 3 2 3 5 10 15 7 8 3 11 11 10 12 13 9 7 8 8 8 7 5 7 4 3 7 9 11 13 14 17 19 18 17 19 20 21 22 23 24 23
2 2 2 3 2 2 6 10 12 15 16 17 16 26 12 9 5 7 10 11 10 10 9 8 7 10 9 7 5 7 10 10 12 17 17 15 16 16 17 18 19 20 20 20
7 6 3 4 3 4 10 13 22 9 7 19 13 14 5 4 9 11 12 14 15 13 11 10 10 16 14 12 10 8 8 9 9 12 13 13 14 15 15 14 14 16 16 15
6 5 2 3 3 2 6 4 5 18 8 16 10 8 8 7 10 10 10 15 15 13 11 10 15 18 17 15 13 11 10 8 6 7 9 8 10 11 10 11 12 14 14 15
1 5 2 4 4 7 8 5 8 8 8 24 25 19 7 4 0 8 9 13 17 17 17 20 26 25 22 19 15 13 11 9 8 6 6 5 7 8 8 8 11 12 12 13
4 4 3 3 5 8 5 3 4 4 7 6 18 13 9 8 4 7 11 14 12 18 24 25 27 23 22 20 18 17 15 12 10 8 6 5 5 5 6 7 9 10 9 12
4 2 7 3 5 8 10 6 6 5 6 5 8 7 12 8 7 3 5 9 18 24 28 29 30 31 28 24 22 20 16 15 12 10 8 5 4 4 5 4 6 8 10 10
11 10 5 3 2 11 12 5 9 5 2 5 5 7 13 7 6 3 3 7 10 15 24 32 30 31 29 27 26 23 22 17 15 12 10 7 6 4 4 4 5 7 8 8
6 8 7 12 9 1 17 5 11 4 5 6 5 6 8 8 7 7 6 8 10 18 24 32 31 32 31 30 29 27 23 20 18 15 12 10 8 7 6 6 5 5 5 5
5 4 4 4 10 16 12 16 5 7 5 5 4 7 9 7 9 8 5 6 8 18 22 29 30 28 31 32 31 28 23 21 20 18 16 14 11 9 7 5 4 4 4 5
5 14 8 6 9 3 11 17 16 13 8 6 4 6 8 8 6 8 7 7 11 19 24 30 29 29 34 35 32 29 24 23 22 19 17 15 13 11 10 8 7 5 4 4
6 8 10 8 9 6 6 13 19 12 15 15 10 7 6 9 9 8 8 13 17 19 25 26 30 31 36 37 35 31 28 26 24 21 19 18 15 14 13 12 11 7 6 5
Wind_Direction
8 73 132 158 107 127 125 136 203 252 257 310 229 288 333 2 350 336 320 359 349 345 347 340 342 350 337 338 336 335 329 322 314 297 283 273 238 210 219 216 220 218 218 222
33 130 184 125 125 108 105 115 283 293 287 222 325 292 199 198 267 265 297 318 341 347 355 352 355 341 342 340 339 334 340 327 317 297 283 274 243 209 212 218 215 224 210 212
139 177 142 127 142 133 173 152 234 243 320 263 324 326 297 261 275 270 307 302 313 331 340 349 349 345 345 346 340 340 348 338 322 290 282 267 249 227 212 211 212 214 210 212
123 147 156 136 185 148 241 184 186 297 31 290 21 286 289 257 284 266 306 323 336 346 341 344 342 348 350 346 352 357 358 343 330 295 254 238 214 201 211 204 209 210 203 211
164 159 160 173 227 187 169 151 184 233 149 309 336 84 268 334 278 277 304 322 340 337 341 340 348 347 347 353 353 360 359 344 346 19 210 225 185 184 174 167 136 152 186 203
137 311 177 184 95 205 147 123 54 61 97 349 247 113 278 199 211 256 271 323 340 340 346 348 353 354 358 4 4 2 356 354 358 38 68 118 161 112 107 105 98 96 100 124
41 218 225 140 112 312 115 71 337 352 9 227 182 85 248 230 224 218 255 311 338 339 345 350 354 351 351 358 2 1 2 2 8 36 64 69 84 89 89 90 99 95 91 91
162 284 175 165 211 184 160 166 154 229 269 291 155 237 251 208 189 223 220 276 346 341 350 348 354 354 357 360 6 10 12 10 14 27 52 64 70 80 79 83 86 84 91 94
147 184 107 81 143 128 168 187 153 109 47 1 216 278 279 159 212 217 236 264 309 331 349 345 355 11 4 9 15 23 21 27 33 33 49 60 69 73 75 85 88 92 90 97
204 116 81 134 92 45 180 155 73 10 40 296 278 272 243 214 225 217 219 227 254 286 334 3 358 10 16 20 25 37 37 42 46 52 62 70 78 84 87 89 88 93 95 98
143 82 139 108 203 182 145 207 69 119 151 193 292 262 213 218 204 200 206 206 208 229 254 355 359 14 19 28 35 40 48 50 57 65 72 79 80 81 84 88 90 93 97 101
197 137 163 189 235 295 225 208 168 140 215 227 154 270 237 236 215 187 189 197 198 205 218 250 25 14 27 27 34 44 54 57 60 72 75 77 80 81 83 87 93 94 95 96
181 266 63 351 357 353 225 197 165 113 104 203 151 263 156 263 208 202 185 194 196 192 201 191 120 61 40 45 38 40 57 66 66 70 77 79 81 85 87 90 91 94 97 96
115 150 180 188 166 135 205 194 182 157 161 191 225 254 216 221 218 219 213 198 193 198 195 186 166 144 89 74 71 60 62 71 80 80 78 76 78 84 87 90 91 91 90 88
145 201 159 260 250 229 238 204 192 209 199 194 234 221 225 209 208 212 205 188 187 205 200 192 185 167 154 109 91 87 78 84 89 90 85 78 81 84 87 87 88 88 87 86
171 169 96 302 1 257 259 235 233 223 231 252 263 278 210 215 173 177 200 191 198 205 202 195 181 179 167 159 139 107 97 92 100 99 93 94 93 89 84 84 85 84 82 81
153 140 119 260 342 336 291 222 210 199 208 218 218 238 135 174 197 209 204 196 203 203 196 194 183 179 175 177 165 144 126 115 106 99 96 97 96 92 86 84 83 82 80 81
142 113 88 197 8 274 244 159 188 218 228 214 239 224 195 199 210 216 197 193 201 198 194 195 186 180 174 176 173 168 156 143 124 109 103 96 92 85 81 81 77 75 73 72
161 134 106 156 203 297 275 194 168 178 269 217 221 235 211 130 115 252 200 196 200 192 193 193 191 182 176 175 176 175 172 166 157 138 117 104 92 81 77 80 78 76 68 67
97 51 125 140 182 217 242 180 161 139 289 202 202 215 162 137 209 250 186 190 197 184 183 186 190 183 177 178 180 181 181 181 175 162 152 144 117 105 89 73 70 77 77 75
137 69 182 183 233 284 238 157 144 101 239 157 179 168 159 190 205 245 136 176 190 181 179 189 185 187 188 183 184 185 186 192 181 174 169 158 132 110 94 97 97 82 74 73
171 159 172 107 181 265 151 91 179 202 120 158 169 183 188 183 196 233 186 161 162 166 165 179 178 189 189 186 187 189 192 185 183 180 177 170 158 149 145 130 103 83 90 88
204 187 180 190 202 231 192 203 211 159 162 197 176 191 185 176 201 210 211 176 180 178 174 177 177 184 190 190 191 193 195 187 186 183 181 181 181 179 162 135 110 98 110 119
236 175 208 132 235 225 217 245 257 206 212 185 198 169 167 176 189 208 204 184 175 175 179 178 174 178 188 194 195 199 193 191 188 187 187 186 183 179 164 142 124 138 146 129
185 150 167 267 275 333 244 226 232 219 220 223 202 181 189 176 198 195 194 195 185 182 182 181 181 184 192 193 197 196 195 194 190 189 190 188 184 184 172 161 163 173 149 122
187 167 188 213 211 199 227 207 213 197 209 211 193 200 201 183 200 188 207 199 187 185 185 186 193 192 195 195 196 196 197 196 194 191 192 190 188 188 182 178 168 153 144 150